Regional Weather Roundup
Issued by NWS

Home | Current Version | Previous Version | Text Only | Print | Product List | Glossary Off
Versions: 1 2 3 4 5 6 7 8 9 10 11 12 13 14 15 16 17 18 19 20 21 22 23 24 25 26 27 28 29 30 31 32 33 34 35 36 37 38 39 40 41 42 43 44 45 46 47 48 49 50

000
ASUS43 KTOP 211059
RWRKS

WEATHER ROUNDUP FOR KANSAS
NATIONAL WEATHER SERVICE GOODLAND KS
500 AM CST TUE NOV 21 2017

NOTE:  "FAIR" INDICATES FEW OR NO CLOUDS BELOW 12,000 FEET WITH NO
SIGNIFICANT WEATHER AND/OR OBSTRUCTIONS TO VISIBILITY.

KSZ001>006-013>018-027>032-041>047-211200-
NORTHWEST KANSAS

CITY           SKY/WX    TMP DP  RH WIND       PRES   REMARKS
GOODLAND       CLOUDY    56  27  32 NW25G38   29.95R
HILL CITY      CLOUDY    43  24  47 NW8       29.87R
RUSSELL        MOCLDY    47  27  45 NW9       29.83R
$$

KSZ061>065-074>080-084>089-211200-
SOUTHWEST KANSAS

CITY           SKY/WX    TMP DP  RH WIND       PRES   REMARKS
DODGE CITY     CLOUDY    46  22  38 N7        29.86R
GARDEN CITY    CLEAR     37  22  54 N10       29.87R WCI  30
GREAT BEND     CLOUDY    48  25  40 NW14      29.84R
LIBERAL        CLOUDY    40  20  44 N10       29.86R WCI  33
$$

KSZ066>073-081>083-090>101-211200-
SOUTHEAST KANSAS

CITY           SKY/WX    TMP DP  RH WIND       PRES   REMARKS
CHANUTE        PTCLDY    44  32  62 S7        29.80R
COFFEYVILLE    PTCLDY    44  34  67 S7        29.81R
HUTCHINSON     PTCLDY    37  29  72 W6        29.80R
MEDICINE LODGE   N/A     35  29  78 CALM      29.78S
NEWTON         CLOUDY    42  30  62 W8        29.80R
PARSONS        PTCLDY    45  34  65 S6        29.81S
WICHITA INTL   MOCLDY    39  31  72 CALM      29.79R
WICHITA JABRA  CLOUDY    44  31  60 SW9       29.78R
WICHITA MCCONL MOCLDY    42  29  61 W8        29.79R
WINFIELD       PTCLDY    39  32  76 S3        29.81R
$$

KSZ007>012-019>026-033>040-048>060-102>105-211200-
NORTHEAST KANSAS

CITY           SKY/WX    TMP DP  RH WIND       PRES   REMARKS
CONCORDIA      CLOUDY    46  26  45 N10       29.83R
EMPORIA        MOCLDY    42  31  64 SW3       29.78R
LAWRENCE       CLOUDY    47  33  58 S5        29.78R
MANHATTAN      CLOUDY    49  31  49 CALM      29.79R
OLATHE IND     CLOUDY    44  32  62 SW8       29.79R
OLATHE EXE     CLOUDY    45  32  60 SW7       29.78R
SALINA         PTCLDY    50  28  42 NW14      29.81R
TOPEKA BILLARD MOCLDY    47  33  58 SW3       29.78R
TOPEKA FORBES  CLOUDY    45  33  63 S3        29.77R
$$



USA.gov is the U.S. government's official web portal to all federal, state and local government web resources and services.